This is the latest recevied weather packets stored in our database for station/object KD9NSC. If no packets are shown the sender has not sent any weather packets the latest 1 day(s).
| Time | Temp. | Humidity | Pressure | Rain* | Wind** | Luminosity | Snow |
|---|---|---|---|---|---|---|---|
| 1778003750 | 11.67° C | 61% | 1011.2 hPa | 0 mm | 0 m/s | 65 W/m² | - |
| 1778003447 | 11.67° C | 62% | 1011.3 hPa | 0 mm | 0 m/s | 68 W/m² | - |
| 1778003144 | 12.22° C | 52% | 1011.2 hPa | 0 mm | 0 m/s | 84 W/m² | - |
| 1778002840 | 12.22° C | 55% | 1011.2 hPa | 0 mm | 0 m/s | 81 W/m² | - |
| 1778002536 | 12.78° C | 58% | 1011.2 hPa | 0 mm | 0 m/s | 89 W/m² | - |
| 1778002233 | 12.78° C | 60% | 1011.3 hPa | 0 mm | 0 m/s | 110 W/m² | - |
| 1778001931 | 13.33° C | 62% | 1011.2 hPa | 0 mm | 0 m/s | 140 W/m² | - |
| 1778001627 | 13.33° C | 61% | 1011.1 hPa | 0 mm | 0 m/s | 142 W/m² | - |
| 1778001323 | 13.33° C | 61% | 1011.1 hPa | 0 mm | 0 m/s | 115 W/m² | - |
| 1778001020 | 13.33° C | 61% | 1011.1 hPa | 0 mm | 0 m/s | 132 W/m² | - |
| 1778000717 | 12.78° C | 60% | 1011.1 hPa | 0 mm | 0 m/s | 167 W/m² | - |
| 1778000413 | 12.22° C | 51% | 1011.1 hPa | 0 mm | 0 m/s | 270 W/m² | - |
| 1778000108 | 12.22° C | 64% | 1011.3 hPa | 0 mm | 0 m/s | 153 W/m² | - |
| 1777999804 | 11.67° C | 67% | 1011.1 hPa | 0 mm | 0 m/s | 133 W/m² | - |
| 1777999500 | 11.67° C | 63% | 1011.1 hPa | 0 mm | 0 m/s | 112 W/m² | - |
| 1777999198 | 11.11° C | 70% | 1010.9 hPa | 0 mm | 0 m/s | 222 W/m² | - |
| 1777998897 | 11.11° C | 66% | 1010.9 hPa | 0 mm | 0 m/s | 125 W/m² | - |
| 1777998596 | 10.56° C | 68% | 1010.9 hPa | 0 mm | 0 m/s | 88 W/m² | - |
| 1777998291 | 11.67° C | 71% | 1011 hPa | 0 mm | 0 m/s | 99 W/m² | - |
| 1777997988 | 12.78° C | 70% | 1011.3 hPa | 0 mm | 0 m/s | 109 W/m² | - |
| 1777997684 | 12.22° C | 70% | 1011.1 hPa | 0 mm | 0 m/s | 348 W/m² | - |
| 1777997382 | 11.67° C | 78% | 1011.1 hPa | 0 mm | 0 m/s | 228 W/m² | - |
| 1777997080 | 11.11° C | 79% | 1011.1 hPa | 0 mm | 0 m/s | 136 W/m² | - |
| 1777996776 | 11.67° C | 75% | 1011.2 hPa | 0 mm | 0 m/s | 417 W/m² | - |
| 1777996473 | 11.67° C | 73% | 1011 hPa | 0 mm | 0 m/s | 418 W/m² | - |
* Rain latest hour (hover to see other rain measurements)
** Current wind speed in m/s (hover to see current wind gust speed)